SCP
0 0 0 0 0 0 0 0 0 0 0 0 0 0 0 0 0 0 0 0 0 0 0 1 1 1 1 1 1 1 1 1 1 1 1 1 1 0 0 0 0 0 0 0
0 0 0 0 0 0 0 0 0 0 0 0 0 0 0 0 0 0 0 0 0 0 1 1 1 1 1 1 1 1 1 1 1 1 1 1 1 1 0 0 0 0 0 0
0 0 0 0 0 0 0 0 0 0 0 0 0 0 0 0 0 0 0 0 0 0 1 1 1 1 1 1 1 1 1 1 1 1 1 1 1 1 1 1 1 0 0 0
0 0 0 0 0 0 0 0 0 0 0 0 0 0 0 0 0 0 0 0 0 0 1 1 1 1 1 1 1 1 2 2 2 1 1 1 1 1 1 1 1 1 1 1
0 0 -0 0 0 0 0 0 0 0 0 0 0 0 0 0 0 0 0 0 0 0 1 1 1 1 1 1 2 2 2 2 2 2 1 1 1 1 1 1 1 1 1 1
0 0 0 0 0 0 0 0 0 0 0 0 0 0 0 0 0 0 0 0 0 1 1 1 1 2 2 2 2 2 2 2 2 2 2 1 1 1 1 1 1 1 1 1
0 0 0 0 0 0 0 0 0 0 0 0 0 0 0 0 0 0 0 0 1 1 1 1 1 2 2 2 2 2 2 2 2 2 2 1 1 1 1 1 1 1 1 1
0 0 0 0 0 0 0 0 0 0 0 0 0 0 0 0 0 0 0 1 1 1 1 1 1 1 2 2 2 2 2 2 2 2 2 1 1 1 1 1 1 1 1 1
0 -0 0 0 0 0 0 0 0 0 0 0 0 0 0 0 0 0 0 1 1 1 1 1 1 1 1 1 2 2 2 2 2 1 1 1 1 1 0 0 1 1 1 1
0 0 0 0 0 0 0 0 0 0 0 0 0 0 0 0 0 0 0 0 0 1 1 1 1 1 1 1 1 1 1 1 1 1 1 1 0 0 0 0 0 0 0 1
0 0 0 0 0 0 0 0 0 0 0 0 0 0 0 0 0 0 0 0 0 0 0 0 1 1 1 1 1 1 1 1 1 1 0 0 0 0 0 0 0 0 0 0
0 0 0 0 0 0 0 0 0 0 0 0 0 0 0 0 0 0 0 0 0 0 0 0 0 0 0 0 0 1 1 1 0 0 0 0 0 0 0 0 0 0 0 0
0 0 0 0 0 0 0 0 0 0 0 0 0 0 0 0 0 0 0 0 0 0 0 0 0 0 0 0 0 0 0 0 0 0 0 0 0 0 0 0 0 0 0 0
0 0 0 0 0 0 0 0 0 0 0 0 0 0 0 0 0 0 0 0 0 0 0 0 0 0 0 0 0 0 0 0 0 0 0 0 0 0 0 0 0 0 0 0
0 0 0 0 0 0 0 0 0 0 0 0 0 0 0 0 0 0 0 0 0 0 0 0 0 0 0 0 0 0 0 0 0 0 0 0 0 0 0 0 0 0 0 0
0 0 0 0 0 0 0 0 0 0 0 0 0 0 0 0 0 0 0 0 0 0 0 0 0 0 0 0 0 0 0 0 0 0 0 0 0 0 0 0 0 0 0 0
0 0 0 0 0 0 0 0 0 0 0 0 0 0 0 0 0 0 0 0 0 0 0 0 0 0 0 0 0 0 0 0 0 0 0 0 0 0 0 0 0 0 0 0
0 0 0 0 0 0 0 0 0 0 0 0 0 0 0 0 0 0 0 0 0 0 0 0 0 0 0 0 0 0 0 0 0 0 0 0 0 0 0 0 0 0 0 0
0 0 0 0 0 0 0 0 0 0 0 0 0 0 0 0 0 0 0 0 0 0 0 0 0 0 0 0 0 0 0 0 0 0 0 0 0 0 0 0 0 0 0 0
0 0 0 0 0 0 0 0 0 0 0 0 0 0 0 0 0 0 0 0 0 0 0 0 0 0 0 0 0 0 0 0 0 0 0 0 0 0 0 0 0 0 0 0
0 0 0 0 0 0 0 0 0 0 0 0 0 0 0 0 0 0 0 0 0 0 0 0 0 0 0 0 0 0 0 0 0 0 0 0 0 0 0 0 0 0 0 0
0 0 0 0 0 0 0 0 0 0 0 0 0 0 0 0 0 0 0 0 0 0 0 0 0 0 0 0 0 0 0 0 0 0 0 0 0 0 0 0 0 0 0 0
0 0 0 0 0 0 0 0 0 0 0 0 0 0 0 0 0 0 0 0 0 0 0 0 0 0 0 0 0 0 0 0 0 0 0 0 0 0 0 0 0 0 0 0
0 0 0 0 0 0 0 0 0 0 0 0 0 0 0 0 0 0 0 0 0 0 0 0 0 0 0 0 0 0 0 0 0 0 0 0 0 0 0 0 0 0 0 0
0 0 0 0 0 0 0 0 0 0 0 0 0 0 0 0 0 0 0 0 0 0 0 0 0 0 0 0 0 0 0 0 0 0 0 0 0 0 0 0 0 0 0 0
0 0 0 0 0 0 0 0 0 0 0 0 0 0 0 0 0 0 0 0 0 0 0 0 0 0 0 0 0 0 0 0 0 0 0 0 0 0 0 0 0 0 0 0
Wind_Speed
3 3 7 11 11 9 7 7 9 11 9 3 5 7 6 6 6 8 8 9 10 10 8 9 10 10 9 9 9 8 8 7 6 4 3 3 3 2 2 2 3 4 4 3
2 9 14 10 8 8 8 9 9 9 8 3 4 6 5 5 8 10 10 10 9 7 6 7 8 9 9 9 9 8 8 8 7 5 4 3 3 2 2 2 2 3 3 3
10 11 8 7 9 9 10 9 9 8 5 3 1 5 6 4 3 5 8 9 9 11 11 10 10 10 10 10 11 9 8 8 7 5 3 2 2 1 1 1 2 3 3 4
8 10 8 8 10 8 10 10 8 6 3 5 2 4 8 4 3 3 5 7 9 10 9 9 10 11 11 11 9 8 7 7 6 6 5 5 4 3 3 3 2 3 3 3
8 6 6 8 10 8 9 7 5 5 3 3 2 2 8 3 4 5 6 7 8 8 9 9 10 10 9 9 8 7 7 6 5 6 7 6 4 3 2 2 3 3 3 3
10 6 6 9 9 7 6 3 4 2 3 3 6 4 7 4 6 5 5 5 6 7 7 8 8 8 7 7 7 7 7 5 5 6 6 6 5 4 4 3 3 3 2 2
8 8 7 5 5 6 1 2 3 5 3 7 4 3 7 5 4 5 4 5 6 7 7 7 7 7 8 8 8 7 7 6 6 5 5 5 6 6 6 5 4 4 2 2
4 8 7 4 6 5 4 7 6 5 6 6 3 4 7 4 2 2 3 3 4 5 5 6 7 8 8 9 9 8 8 7 6 6 5 4 5 4 4 4 4 4 4 4
5 8 6 6 5 5 3 4 7 6 3 2 4 5 5 0 1 1 3 3 4 5 5 6 6 7 7 8 8 9 8 6 6 6 5 4 4 4 4 3 3 3 3 3
5 4 6 5 2 2 5 5 4 4 3 4 4 5 6 5 4 2 2 3 4 5 6 6 6 6 6 5 5 6 7 6 5 5 4 4 3 4 3 3 3 3 3 2
3 3 5 2 2 4 1 0 3 3 5 5 4 8 6 9 8 7 6 6 5 5 7 7 6 5 5 5 4 5 4 4 4 4 4 3 3 3 3 3 3 3 3 3
3 4 3 6 6 4 4 4 5 4 3 4 4 9 5 6 6 6 6 5 5 6 7 7 7 6 5 5 5 5 5 4 4 4 3 3 3 2 3 3 3 3 3 3
3 4 1 6 6 4 1 1 3 4 3 3 3 8 3 1 2 3 4 4 4 5 5 6 6 6 6 6 5 5 5 4 4 3 3 2 2 3 3 3 2 2 2 2
4 3 6 7 7 4 4 5 2 4 3 4 7 7 3 2 3 2 2 3 4 5 6 6 6 6 6 6 6 6 5 5 4 4 3 3 3 3 3 2 2 3 3 2
4 2 3 5 6 4 5 6 5 3 6 7 7 7 7 7 7 5 4 3 4 4 5 5 6 6 5 5 5 5 4 4 4 4 3 3 2 2 2 2 2 2 2 2
2 2 2 5 4 4 6 6 5 4 3 3 3 4 4 4 4 4 4 5 5 5 5 5 6 6 6 5 5 4 4 4 4 5 4 3 2 2 2 2 2 2 2 2
2 3 1 4 5 3 5 5 3 1 2 4 5 5 3 4 4 4 4 4 5 5 5 5 6 7 7 6 6 5 5 4 4 4 3 3 3 3 3 3 2 3 3 2
5 3 3 2 1 4 6 2 2 3 2 2 1 1 4 5 4 2 3 4 4 4 5 4 5 4 4 4 4 4 4 4 4 3 3 3 4 3 3 2 2 3 2 2
6 6 3 3 3 5 3 2 1 2 1 2 3 2 2 3 4 2 1 2 3 3 3 3 4 4 4 4 4 4 3 3 3 3 3 3 4 3 3 3 3 3 2 2
3 3 4 3 3 4 3 5 3 3 1 2 3 3 1 3 2 3 2 1 2 2 2 3 3 3 4 3 4 5 4 3 3 4 4 4 4 4 4 4 3 2 2 2
3 2 1 2 3 4 4 5 3 3 4 3 1 3 2 3 5 4 2 1 2 2 2 3 3 3 3 2 3 3 3 4 4 4 3 3 3 3 3 3 2 2 2 2
2 1 1 1 1 4 5 3 2 3 2 1 1 2 2 2 3 3 3 3 2 2 2 3 3 2 1 2 2 2 3 4 3 2 2 2 3 2 2 2 2 1 1 2
0 2 3 3 4 4 2 0 1 1 2 0 1 1 3 3 3 2 2 2 2 2 2 2 3 2 1 2 2 2 3 3 2 2 2 2 2 1 1 2 2 1 1 2
3 1 2 1 1 2 2 2 2 2 2 1 2 3 4 3 2 2 2 2 2 1 2 2 2 2 1 2 2 3 2 2 2 2 2 2 1 2 2 1 1 2 2 2
4 2 2 0 1 3 4 3 2 3 4 4 3 3 2 3 2 2 3 2 2 2 1 2 2 2 1 1 1 1 1 2 2 2 2 2 2 2 2 2 2 3 3 4
2 1 2 3 3 2 3 3 1 1 1 2 3 2 2 1 2 2 2 2 2 2 2 2 2 1 1 1 1 2 1 1 2 1 1 1 1 2 2 2 2 3 4 6
Wind_Direction
229 166 227 231 215 218 237 251 264 270 270 285 267 261 251 223 192 189 190 184 185 191 195 178 174 171 166 163 162 170 163 165 158 155 158 160 178 183 183 194 186 178 182 180
298 239 235 235 237 233 243 253 267 278 272 260 256 268 261 220 197 192 188 188 189 184 183 177 175 172 173 171 169 173 170 169 171 173 173 173 173 184 188 190 184 182 182 185
219 241 237 230 245 245 246 233 240 249 282 315 303 295 280 275 227 194 187 186 184 184 182 178 181 181 176 176 176 179 178 174 174 164 140 120 96 79 101 193 195 204 191 187
241 244 239 240 245 231 249 239 227 238 261 273 220 276 281 268 262 230 214 204 195 191 180 177 179 179 182 184 179 174 173 172 171 160 158 162 173 188 202 196 199 215 205 198
243 229 229 239 241 229 240 246 232 235 233 287 289 220 273 270 252 244 225 214 196 188 179 177 180 179 180 175 169 168 166 168 168 169 172 175 183 195 190 181 192 210 220 214
249 246 221 232 249 237 241 313 332 6 69 277 252 206 263 245 228 235 234 213 187 174 176 177 172 163 165 165 162 158 158 168 171 173 176 179 181 184 182 193 199 209 217 223
271 271 254 239 266 281 249 82 357 337 334 256 258 217 246 244 219 212 216 197 179 160 167 167 161 160 164 165 168 164 164 172 175 175 181 185 185 187 193 200 201 204 208 221
236 269 254 234 215 224 231 160 174 220 240 269 303 238 250 232 217 190 167 168 153 149 157 165 168 164 166 168 168 168 171 175 174 176 184 184 182 188 201 205 199 203 205 214
205 250 262 247 232 185 222 225 190 168 221 263 266 274 293 323 109 126 125 134 160 157 165 167 169 165 164 166 171 171 170 172 178 182 182 186 187 190 197 200 199 203 207 212
177 249 269 263 281 254 178 179 102 127 181 254 269 258 244 221 219 209 175 175 196 164 163 164 163 162 159 161 164 162 162 171 179 179 186 184 188 193 191 188 200 204 205 200
166 188 283 322 225 237 280 133 130 140 166 178 246 262 233 199 200 191 195 191 190 173 168 163 155 155 149 142 145 153 160 161 171 177 178 176 191 198 189 192 204 202 197 195
167 140 252 261 254 216 185 191 155 160 236 182 198 262 272 197 192 180 192 195 187 178 168 160 153 145 141 149 152 158 164 170 177 174 169 176 183 187 187 198 205 198 200 207
135 117 14 328 334 347 353 226 174 155 145 180 203 262 304 146 173 179 171 179 176 166 155 151 146 145 155 163 159 158 161 168 166 159 166 171 179 191 197 202 202 199 207 218
102 132 175 212 234 249 282 295 260 147 170 217 223 237 254 201 173 172 155 155 155 158 152 146 151 157 161 159 160 160 165 167 165 164 165 179 196 206 206 201 198 204 206 210
90 168 232 247 256 262 277 281 284 239 206 204 231 225 222 202 180 176 162 142 139 144 144 149 159 160 158 157 159 160 169 172 167 166 176 200 205 193 186 189 200 207 212 220
101 183 272 289 286 297 291 285 279 266 236 219 220 244 231 186 151 142 154 156 149 143 151 156 156 155 160 165 169 163 170 176 165 171 187 194 186 183 190 202 204 211 223 228
170 157 172 270 287 323 276 258 245 256 266 190 209 226 179 140 147 162 166 169 158 147 156 160 161 168 171 173 174 175 173 163 164 176 186 187 189 194 210 216 213 222 227 224
165 158 165 228 337 236 245 249 137 119 29 56 98 175 167 167 162 155 147 148 158 158 163 165 162 164 165 167 172 170 154 152 165 179 189 194 192 202 216 218 227 235 231 229
166 156 159 157 208 257 277 313 252 186 309 32 84 74 91 111 80 26 357 116 149 159 162 164 155 156 160 157 162 148 144 155 170 186 199 201 198 200 207 221 232 232 224 238
62 119 141 158 186 229 265 305 298 120 270 328 98 115 162 107 113 248 257 107 106 119 141 141 130 126 142 159 150 144 162 170 190 204 209 208 205 204 215 225 232 231 221 237
5 21 136 179 205 254 292 311 21 134 238 280 144 150 173 180 198 203 175 119 123 128 132 134 128 136 159 165 148 153 176 205 213 207 206 210 218 220 219 218 223 232 232 247
181 148 185 139 168 261 322 27 106 216 238 96 88 127 144 144 130 131 134 129 128 116 115 128 130 143 167 165 147 169 211 222 214 196 202 217 225 227 218 205 232 235 224 247
137 195 178 174 205 255 320 121 236 169 129 66 116 101 117 118 127 134 137 137 138 143 154 152 152 163 221 215 177 190 234 216 186 177 211 228 234 238 226 204 217 241 239 237
324 358 99 89 314 317 338 17 29 72 85 71 109 115 112 134 153 143 144 141 146 145 168 152 147 162 241 267 240 224 232 195 165 187 226 231 228 259 269 236 210 217 235 237
296 349 38 6 279 2 358 11 29 44 65 63 68 78 104 135 156 153 146 158 170 160 156 146 157 173 211 262 272 249 201 153 160 200 229 238 236 242 259 255 241 233 234 226
294 227 196 231 233 179 265 292 343 62 79 98 87 48 17 114 138 122 129 142 140 150 142 129 145 165 219 249 275 295 261 175 172 191 239 250 251 256 251 250 286 285 263 264